Weather History for KORH - October, 2010

Change the Weather History Date:

Saturday, October 30, 2010

  Actual Average Record
Temperature  
Mean Temperature 42 °F 46 °F  
Max Temperature 50 °F 54 °F 78 °F (1946)
Min Temperature 33 °F 38 °F 19 °F (1928)
Degree Days  
Heating Degree Days 23 19  
Month to date heating degree days 431 448  
Since 1 July heating degree days 556 641  
Cooling Degree Days 0 0  
Month to date cooling degree days 2 0  
Year to date cooling degree days 730 468  
Moisture  
Dew Point -    
Average Humidity 59    
Maximum Humidity 76    
Minimum Humidity 42    
Precipitation  
Precipitation 0.00 in 0.14 in 2.34 in (1973)
Month to date precipitation 6.21 4.54  
Year to date precipitation 41.99 39.83  
Snow  
Snow 0.00 in 0.10 in 3.20 in (2011)
Month to date snowfall T 0.2  
Since 1 July snowfall T 0.2  
Since 1 September snowfall T 0.2  
Snow Depth 0.00 in    
Wind  
Wind Speed 13 mph (North)    
Max Wind Speed 24 mph    
Max Gust Speed 32 mph    
T = Trace of Precipitation, MM = Missing Value Source: NWS Daily Summary

Daily Weather History Graph

Daily Weather History Graph

Search for Another Location

Airport or City:

Trip Planner

Search our weather history database for the weather conditions in past years. The results will help you decide how hot, cold, wet, or windy it might be!

Date:

Astronomy

Oct. 30, 2010 Rise Set
Actual Time 7:18 AM EDT 5:43 PM EDT
Civil Twilight 6:49 AM EDT 6:12 PM EDT
Nautical Twilight 6:16 AM EDT 6:45 PM EDT
Astronomical Twilight 5:43 AM EDT 7:18 PM EDT
Moon No Moon Rise 1:52 PM EDT (10/30)
Length of Visible Light 11h 23m
Length of Day
10h 25m
Waning Gibbous, 48% of the Moon is Illuminated
Oct 30
Waning Gibbous
Nov 6
New
Nov 13
First Quarter
Nov 21
Full
Nov 28
Last Quarter

Hourly Weather History & Observations

Time (EDT) Temp. Windchill Dew Point Humidity Pressure Visibility Wind Dir Wind Speed Gust Speed Precip Events Conditions
12:54 AM 37.9 °F 30.5 °F 25.0 °F 60% 29.95 in 10.0 mi WNW 11.5 mph - N/A   Clear
1:54 AM 37.0 °F 32.4 °F 25.0 °F 62% 29.95 in 10.0 mi West 5.8 mph - N/A   Clear
2:54 AM 37.0 °F 34.5 °F 25.0 °F 62% 29.97 in 10.0 mi Variable 3.5 mph - N/A   Clear
3:54 AM 34.0 °F 28.8 °F 25.0 °F 70% 29.98 in 10.0 mi WSW 5.8 mph - N/A   Clear
4:54 AM 35.1 °F 31.0 °F 25.0 °F 67% 29.99 in 10.0 mi West 4.6 mph - N/A   Clear
5:54 AM 34.0 °F 26.6 °F 24.1 °F 67% 30.00 in 10.0 mi WSW 9.2 mph - N/A   Clear
6:54 AM 35.1 °F 27.4 °F 27.0 °F 72% 30.01 in 10.0 mi WSW 10.4 mph - N/A   Mostly Cloudy
7:54 AM 35.1 °F 28.6 °F 28.9 °F 78% 30.01 in 10.0 mi WSW 8.1 mph - N/A   Clear
8:54 AM 39.0 °F 31.4 °F 32.0 °F 76% 29.99 in 10.0 mi SW 12.7 mph 18.4 mph N/A   Clear
9:54 AM 43.0 °F 35.4 °F 30.9 °F 62% 29.97 in 10.0 mi WSW 16.1 mph 25.3 mph N/A   Clear
10:54 AM 46.0 °F 38.5 °F 30.9 °F 56% 29.96 in 10.0 mi WSW 19.6 mph 28.8 mph N/A   Clear
11:54 AM 48.0 °F - 28.9 °F 48% 29.94 in 10.0 mi West 20.7 mph 29.9 mph N/A   Clear
12:54 PM 50.0 °F - 30.0 °F 46% 29.91 in 10.0 mi West 17.3 mph 31.1 mph N/A   Clear
1:54 PM 48.9 °F - 28.9 °F 46% 29.87 in 10.0 mi WSW 17.3 mph 27.6 mph N/A   Clear
2:54 PM 48.9 °F - 28.9 °F 46% 29.85 in 10.0 mi SW 17.3 mph - N/A   Clear
3:54 PM 48.9 °F - 28.9 °F 46% 29.84 in 10.0 mi WSW 12.7 mph - N/A   Overcast
4:54 PM 48.9 °F - 30.0 °F 48% 29.83 in 10.0 mi WSW 9.2 mph - N/A   Partly Cloudy
5:54 PM 48.9 °F - 28.0 °F 44% 29.82 in 10.0 mi SW 11.5 mph - N/A   Clear
6:54 PM 48.0 °F - 27.0 °F 44% 29.81 in 10.0 mi SSW 10.4 mph - N/A   Clear
7:54 PM 46.0 °F 40.2 °F 30.9 °F 56% 29.78 in 10.0 mi SSW 12.7 mph - N/A   Clear
8:54 PM 46.9 °F - 30.9 °F 54% 29.76 in 10.0 mi SW 11.5 mph - N/A   Clear
9:54 PM 48.0 °F - 30.0 °F 50% 29.75 in 10.0 mi SW 13.8 mph 25.3 mph N/A   Clear
10:54 PM 48.0 °F - 30.0 °F 50% 29.73 in 10.0 mi WSW 18.4 mph 31.1 mph N/A   Partly Cloudy
11:54 PM 46.9 °F - 30.0 °F 52% 29.70 in 10.0 mi WSW 20.7 mph 29.9 mph N/A   Clear